JAT1253 SCEL-SCCI

Flight info

Callsign JAT1253
Flight time N/A
Altitude 39000
Route LINER6C LINER UQ805 TIGNO UQ803 NEDAX NEDAX3E
Aircraft A20N/M-SDE2E3FGHIRWXY/LB1

Departure

Time N/A
Airport Comodoro Arturo Merino Benítez International Airport (SCEL)

Arrival

Time 2026-04-30 06:09
Airport President Carlos Ibáñez International Airport (SCCI)
Time Latitude Longitude Altitude Speed Heading
2026-04-30 05:43 -51.40263 -72.77800 38487 ft 495 kts 152°
2026-04-30 05:43 -51.43200 -72.74908 38487 ft 495 kts 152°
2026-04-30 05:44 -51.49063 -72.69122 38379 ft 491 kts 152°
2026-04-30 05:44 -51.51959 -72.66255 38166 ft 487 kts 152°
2026-04-30 05:44 -51.54836 -72.63405 37900 ft 486 kts 152°
2026-04-30 05:45 -51.57722 -72.60543 37625 ft 486 kts 152°
2026-04-30 05:45 -51.60559 -72.57726 37266 ft 484 kts 152°
2026-04-30 05:45 -51.63432 -72.54869 36554 ft 484 kts 152°
2026-04-30 05:45 -51.66300 -72.52013 35785 ft 485 kts 153°
2026-04-30 05:46 -51.69184 -72.49137 34981 ft 487 kts 153°
2026-04-30 05:46 -51.72079 -72.46246 34142 ft 491 kts 152°
2026-04-30 05:46 -51.74841 -72.43074 33489 ft 491 kts 148°
2026-04-30 05:46 -51.77596 -72.39816 32695 ft 489 kts 148°
2026-04-30 05:47 -51.80325 -72.36525 31878 ft 488 kts 148°
2026-04-30 05:47 -51.83008 -72.33270 31038 ft 486 kts 148°
2026-04-30 05:47 -51.85716 -72.29973 30175 ft 485 kts 147°
2026-04-30 05:47 -51.88411 -72.26685 29252 ft 484 kts 147°
2026-04-30 05:48 -51.91109 -72.23388 28184 ft 484 kts 147°
2026-04-30 05:48 -51.93789 -72.20108 27155 ft 481 kts 147°
2026-04-30 05:48 -51.96428 -72.16872 26061 ft 480 kts 146°
2026-04-30 05:48 -51.99105 -72.13586 24912 ft 480 kts 146°
2026-04-30 05:49 -52.01722 -72.10367 24041 ft 475 kts 146°
2026-04-30 05:49 -52.04298 -72.07186 23941 ft 452 kts 146°
2026-04-30 05:49 -52.06776 -72.04129 23919 ft 456 kts 146°
2026-04-30 05:49 -52.09277 -72.00893 23883 ft 461 kts 143°
2026-04-30 05:50 -52.11719 -71.97491 23849 ft 462 kts 142°
2026-04-30 05:50 -52.14146 -71.94058 23823 ft 462 kts 142°
2026-04-30 05:50 -52.16573 -71.90617 23779 ft 462 kts 142°
2026-04-30 05:50 -52.19000 -71.87178 23756 ft 462 kts 142°
2026-04-30 05:51 -52.21399 -71.83777 23706 ft 462 kts 142°
2026-04-30 05:51 -52.23824 -71.80337 23650 ft 461 kts 142°
2026-04-30 05:51 -52.26250 -71.76891 23589 ft 461 kts 142°
2026-04-30 05:51 -52.28665 -71.73457 23529 ft 460 kts 142°
2026-04-30 05:52 -52.31080 -71.70017 23487 ft 460 kts 142°
2026-04-30 05:52 -52.33467 -71.66614 23410 ft 459 kts 142°
2026-04-30 05:52 -52.35873 -71.63178 23341 ft 458 kts 142°
2026-04-30 05:52 -52.38273 -71.59747 23283 ft 457 kts 142°
2026-04-30 05:53 -52.40665 -71.56320 23148 ft 456 kts 142°
2026-04-30 05:53 -52.43056 -71.52890 22266 ft 453 kts 142°
2026-04-30 05:53 -52.45394 -71.49528 21127 ft 439 kts 142°
2026-04-30 05:53 -52.47644 -71.46287 20334 ft 433 kts 142°
2026-04-30 05:54 -52.49906 -71.43031 19532 ft 432 kts 142°
2026-04-30 05:54 -52.52161 -71.39778 18714 ft 426 kts 142°
2026-04-30 05:54 -52.54349 -71.36613 17925 ft 413 kts 141°
2026-04-30 05:54 -52.56512 -71.33485 17024 ft 413 kts 141°
2026-04-30 05:55 -52.58659 -71.30376 16224 ft 410 kts 142°
2026-04-30 05:55 -52.60765 -71.27319 15451 ft 396 kts 142°
2026-04-30 05:55 -52.62829 -71.24320 14673 ft 396 kts 142°
2026-04-30 05:55 -52.64869 -71.21355 13893 ft 394 kts 142°
2026-04-30 05:56 -52.66912 -71.18376 13155 ft 389 kts 142°
2026-04-30 05:56 -52.68926 -71.15434 12312 ft 384 kts 142°
2026-04-30 05:56 -52.70916 -71.12524 11545 ft 379 kts 142°
2026-04-30 05:56 -52.72888 -71.09639 10778 ft 378 kts 143°
2026-04-30 05:57 -52.74832 -71.06791 10033 ft 376 kts 142°
2026-04-30 05:57 -52.76731 -71.03997 9807 ft 353 kts 142°
2026-04-30 05:57 -52.78498 -71.01388 9734 ft 328 kts 143°
2026-04-30 05:57 -52.80140 -70.98944 9668 ft 307 kts 141°
2026-04-30 05:58 -52.81365 -70.96126 9447 ft 303 kts 118°
2026-04-30 05:58 -52.81941 -70.92807 8957 ft 305 kts 104°
2026-04-30 05:58 -52.82143 -70.89294 8389 ft 308 kts 92°
2026-04-30 05:58 -52.82052 -70.85752 7836 ft 308 kts 89°
2026-04-30 05:59 -52.81913 -70.82213 7308 ft 307 kts 88°
2026-04-30 05:59 -52.81766 -70.78683 6910 ft 307 kts 88°
2026-04-30 05:59 -52.81615 -70.75170 6410 ft 306 kts 88°
2026-04-30 05:59 -52.81462 -70.71710 5899 ft 305 kts 88°
2026-04-30 06:00 -52.81357 -70.69383 5539 ft 306 kts 88°
2026-04-30 06:00 -52.81193 -70.65864 5001 ft 305 kts 88°
2026-04-30 06:00 -52.81031 -70.62420 4516 ft 303 kts 89°
2026-04-30 06:00 -52.81131 -70.58989 4068 ft 294 kts 107°
2026-04-30 06:01 -52.81895 -70.55944 3788 ft 282 kts 132°
2026-04-30 06:01 -52.83303 -70.53887 3541 ft 262 kts 162°
2026-04-30 06:01 -52.85002 -70.53242 3399 ft 245 kts 187°
2026-04-30 06:01 -52.86697 -70.53385 3266 ft 242 kts 193°
2026-04-30 06:02 -52.88353 -70.53684 3136 ft 241 kts 194°
2026-04-30 06:02 -52.90030 -70.54009 3026 ft 242 kts 194°
2026-04-30 06:02 -52.91709 -70.54331 2991 ft 244 kts 194°
2026-04-30 06:02 -52.93400 -70.54649 2992 ft 244 kts 193°
2026-04-30 06:03 -52.95090 -70.54962 2993 ft 244 kts 193°
2026-04-30 06:03 -52.96742 -70.55325 2992 ft 228 kts 199°
2026-04-30 06:03 -52.98136 -70.56165 2997 ft 200 kts 216°
2026-04-30 06:03 -52.99004 -70.57679 3000 ft 174 kts 244°
2026-04-30 06:04 -52.99431 -70.59451 2991 ft 158 kts 253°
2026-04-30 06:04 -52.99690 -70.61170 2867 ft 151 kts 261°
2026-04-30 06:04 -52.99780 -70.62904 2654 ft 150 kts 266°
2026-04-30 06:05 -52.99833 -70.66169 2270 ft 125 kts 267°
2026-04-30 06:05 -52.99852 -70.67519 2082 ft 109 kts 267°
2026-04-30 06:05 -52.99868 -70.68692 1934 ft 96 kts 268°
2026-04-30 06:05 -52.99883 -70.69781 1807 ft 93 kts 268°
2026-04-30 06:06 -52.99898 -70.70858 1677 ft 93 kts 269°
2026-04-30 06:06 -52.99912 -70.71931 1537 ft 93 kts 269°
2026-04-30 06:06 -52.99926 -70.72989 1417 ft 93 kts 269°
2026-04-30 06:06 -52.99940 -70.74068 1297 ft 93 kts 269°
2026-04-30 06:07 -52.99954 -70.75155 1149 ft 95 kts 269°
2026-04-30 06:07 -52.99968 -70.76258 1012 ft 96 kts 270°
2026-04-30 06:07 -52.99983 -70.77385 869 ft 99 kts 270°
2026-04-30 06:07 -52.99998 -70.78545 727 ft 102 kts 271°
2026-04-30 06:08 -53.00013 -70.79739 582 ft 105 kts 272°
2026-04-30 06:08 -53.00022 -70.80954 367 ft 105 kts 272°
2026-04-30 06:08 -53.00041 -70.82175 233 ft 106 kts 272°
2026-04-30 06:08 -53.00060 -70.83374 124 ft 102 kts 273°
2026-04-30 06:09 -53.00072 -70.84280 120 ft 43 kts 270°
2026-04-30 06:09 -53.00077 -70.84772 123 ft 38 kts 263°
2026-04-30 06:09 -53.00180 -70.84836 120 ft 19 kts 142°
2026-04-30 06:09 -53.00325 -70.84679 116 ft 30 kts 144°
2026-04-30 06:10 -53.00460 -70.84462 116 ft 4 kts 186°
2026-04-30 06:10 -53.00461 -70.84463 116 ft 0 kts 193°